{"data":{"norad_id":52680,"intl_designator":"2022-053AA","name":"STARLINK-3774","alt_names":[],"object_type":"PAYLOAD","status":"ACTIVE","operator":null,"country":"US","launch_date":"2022-05-18","launch_site_code":"AFETR","launch_vehicle":null,"mission":null,"orbit_class":"UNKNOWN","rcs_meters":null,"size_class":null,"mass_kg":null,"dimensions":null,"purposes":["comms"],"wikipedia_slug":null,"has_3d_model":false,"image_url":null,"decayed_at":null,"tle_current":{"epoch":"2026-09-20T04:00:03.000096Z","epoch_age_seconds":95282,"freshness":"FRESH","line1":"1 52680U 22053AA  26263.16670139  .00083173  00000+0  30868-2 0  9993","line2":"2 52680  53.1590 348.7075 0002053 104.7889   3.6074 15.26880371  5845","mean_motion":15.26880371,"eccentricity":0.0002053,"inclination_deg":53.159,"raan_deg":348.7075,"arg_perigee_deg":104.7889,"mean_anomaly_deg":3.6074,"bstar":0.0030868,"rev_number":584,"period_min":94.30994250433,"perigee_km":483.73580508651,"apogee_km":486.55386860872,"semimajor_km":6863.2818368476,"source":"CELESTRAK","updated_at":"2026-09-20T09:00:40.105011Z"}}}